Council Bluffs, IA

3:16 PM CST on February 20, 2017 (GMT -0600)
Council Bluffs Municipal

Weather History for KCBF - January, 2014

Change the Weather History Date:

Friday, January 3, 2014

  Actual Average Record
Temperature  
Mean Temperature 18 °F -  
Max Temperature 35 °F 33 °F 51 °F (1998)
Min Temperature 0 °F 17 °F 0 °F (1999)
Degree Days  
Heating Degree Days 48    
Moisture  
Dew Point 12 °F    
Average Humidity 72    
Maximum Humidity 80    
Minimum Humidity 64    
Precipitation  
Precipitation 0.00 in - - ()
Sea Level Pressure  
Sea Level Pressure 29.90 in    
Wind  
Wind Speed 15 mph (South)    
Max Wind Speed 29 mph    
Max Gust Speed 40 mph    
Visibility 10 miles    
Events Snow    
Averages and records for this station are not official NWS values.
T = Trace of Precipitation, MM = Missing Value Source: NWS Daily Summary

Daily Weather History Graph

Daily Weather History Graph

Search for Another Location

Airport or City:

Trip Planner

Search our weather history database for the weather conditions in past years. The results will help you decide how hot, cold, wet, or windy it might be!

Date:

Astronomy

Jan. 03, 2014 Rise Set
Actual Time 7:48 AM CST 5:06 PM CST
Civil Twilight 7:17 AM CST 5:37 PM CST
Nautical Twilight 6:43 AM CST 6:12 PM CST
Astronomical Twilight 6:09 AM CST 6:45 PM CST
Moon 9:13 AM CST (1/3) 8:19 PM CST (1/3)
Length of Visible Light 10h 19m
Length of Day
9h 17m
Waxing Crescent, 8% of the Moon is Illuminated
Jan 3
Waxing Crescent
Jan 7
First Quarter
Jan 15
Full
Jan 23
Last Quarter
Jan 30
New

Hourly Weather History & Observations

Time (CST) Temp. Windchill Dew Point Humidity Pressure Visibility Wind Dir Wind Speed Gust Speed Precip Events Conditions
12:15 AM -0.4 °F -13.4 °F -7.6 °F 72% 30.35 in 10.0 mi SSE 6.9 mph - N/A   Clear
12:35 AM -0.4 °F -13.4 °F -7.6 °F 72% 30.34 in 10.0 mi SE 6.9 mph - N/A   Clear
12:55 AM -0.4 °F -15.7 °F -7.6 °F 72% 30.34 in 10.0 mi SSE 9.2 mph - N/A   Clear
1:15 AM -0.4 °F -17.6 °F -5.8 °F 78% 30.32 in 10.0 mi SSE 11.5 mph - N/A   Clear
1:35 AM 1.4 °F -15.3 °F -5.8 °F 72% 30.31 in 10.0 mi SSE 11.5 mph - N/A   Clear
1:55 AM 3.2 °F -13.9 °F -4.0 °F 72% 30.31 in 10.0 mi SSE 12.7 mph - N/A Snow Light Snow
2:15 AM 3.2 °F -14.6 °F -4.0 °F 72% 30.29 in 10.0 mi SSE 13.8 mph - N/A Snow Light Snow
2:35 AM 3.2 °F -13.9 °F -4.0 °F 72% 30.28 in 10.0 mi South 12.7 mph 19.6 mph N/A   Overcast
2:55 AM 5.0 °F -11.6 °F -2.2 °F 72% 30.28 in 10.0 mi South 12.7 mph - N/A   Overcast
3:15 AM 5.0 °F -12.3 °F -4.0 °F 66% 30.27 in 10.0 mi South 13.8 mph - N/A   Overcast
3:35 AM 5.0 °F -10.8 °F -2.2 °F 72% 30.26 in 10.0 mi South 11.5 mph - N/A   Overcast
3:55 AM 5.0 °F -10.0 °F -2.2 °F 72% 30.25 in 10.0 mi South 10.4 mph - N/A Snow Light Snow
4:15 AM 5.0 °F -11.6 °F -2.2 °F 72% 30.23 in 10.0 mi SSE 12.7 mph - N/A   Overcast
4:35 AM 5.0 °F -12.3 °F -2.2 °F 72% 30.22 in 10.0 mi South 13.8 mph - N/A   Overcast
4:55 AM 5.0 °F -11.6 °F -2.2 °F 72% 30.21 in 10.0 mi SSE 12.7 mph - N/A   Overcast
5:15 AM 5.0 °F - -2.2 °F 72% 30.18 in 10.0 mi North - - N/A Snow Light Snow
5:35 AM 5.0 °F -14.2 °F -2.2 °F 72% 30.16 in 10.0 mi SSE 17.3 mph 23.0 mph N/A Snow Light Snow
5:55 AM 5.0 °F -14.7 °F -2.2 °F 72% 30.14 in 10.0 mi SSE 18.4 mph - N/A   Mostly Cloudy
6:15 AM 5.0 °F -14.2 °F -2.2 °F 72% 30.13 in 10.0 mi SSE 17.3 mph - N/A Snow Light Snow
6:35 AM 3.2 °F -15.9 °F -2.2 °F 78% 30.12 in 10.0 mi SSE 16.1 mph - N/A   Clear
6:55 AM 3.2 °F -16.5 °F -2.2 °F 78% 30.10 in 10.0 mi South 17.3 mph - N/A Snow Light Snow
7:15 AM 5.0 °F -15.7 °F -2.2 °F 72% 30.09 in 10.0 mi South 20.7 mph - N/A Snow Light Snow
7:35 AM 5.0 °F -15.2 °F -2.2 °F 72% 30.07 in 10.0 mi SSE 19.6 mph - N/A   Clear
7:55 AM 5.0 °F -13.0 °F -2.2 °F 72% 30.07 in 10.0 mi South 15.0 mph - N/A   Clear
8:15 AM 5.0 °F -14.7 °F -0.4 °F 78% 30.05 in 10.0 mi South 18.4 mph 24.2 mph N/A   Clear
8:35 AM 6.8 °F -12.9 °F -0.4 °F 72% 30.04 in 10.0 mi South 19.6 mph 25.3 mph N/A Snow Light Snow
8:55 AM 6.8 °F -10.7 °F 1.4 °F 79% 30.04 in 10.0 mi South 15.0 mph 25.3 mph N/A   Clear
9:15 AM 8.6 °F -10.5 °F 1.4 °F 73% 30.03 in 10.0 mi South 19.6 mph - N/A   Clear
9:35 AM 10.4 °F -6.6 °F 3.2 °F 73% 30.01 in 10.0 mi SSE 16.1 mph 21.9 mph N/A   Clear
9:55 AM 12.2 °F -3.7 °F 6.8 °F 79% 30.00 in 10.0 mi South 15.0 mph - N/A   Clear
10:15 AM 15.8 °F -0.6 °F 8.6 °F 73% 29.99 in 10.0 mi South 18.4 mph 25.3 mph N/A Snow Light Snow
10:35 AM 19.4 °F 3.6 °F 10.4 °F 68% 29.97 in 10.0 mi South 19.6 mph 31.1 mph N/A Snow Light Snow
10:55 AM 19.4 °F 3.6 °F 10.4 °F 68% 29.96 in 10.0 mi South 19.6 mph 28.8 mph N/A Snow Light Snow
11:15 AM 19.4 °F 2.8 °F 12.2 °F 74% 29.93 in 10.0 mi SSW 21.9 mph 31.1 mph N/A Snow Light Snow
11:35 AM 21.2 °F 4.9 °F 12.2 °F 68% 29.91 in 10.0 mi South 23.0 mph 29.9 mph N/A Snow Light Snow
11:55 AM 21.2 °F 4.9 °F 14.0 °F 74% 29.87 in 10.0 mi South 23.0 mph 31.1 mph N/A   Clear
12:15 PM 23.0 °F 6.0 °F 14.0 °F 68% 29.84 in 10.0 mi South 27.6 mph 34.5 mph N/A Snow Light Snow
12:35 PM 24.8 °F 9.3 °F 15.8 °F 69% 29.81 in 10.0 mi South 24.2 mph 33.4 mph N/A   Clear
12:55 PM 24.8 °F 10.3 °F 15.8 °F 69% 29.80 in 10.0 mi South 20.7 mph 31.1 mph N/A   Clear
1:15 PM 26.6 °F 10.6 °F 17.6 °F 69% 29.76 in 10.0 mi South 28.8 mph 40.3 mph N/A Snow Light Snow
1:35 PM 28.4 °F 14.7 °F 19.4 °F 69% 29.75 in 10.0 mi South 21.9 mph 33.4 mph N/A Snow Light Snow
1:55 PM 30.2 °F 16.5 °F 19.4 °F 64% 29.72 in 10.0 mi South 24.2 mph 33.4 mph N/A Snow Light Snow
2:15 PM 30.2 °F 15.9 °F 21.2 °F 69% 29.70 in 10.0 mi South 26.5 mph 33.4 mph N/A Snow Light Snow
2:35 PM 32.0 °F 19.8 °F 23.0 °F 69% 29.69 in 10.0 mi South 20.7 mph 29.9 mph N/A   Clear
2:55 PM 32.0 °F 19.8 °F 23.0 °F 69% 29.69 in 10.0 mi SSW 20.7 mph 33.4 mph N/A Snow Light Snow
3:15 PM 32.0 °F 19.8 °F 23.0 °F 69% 29.69 in 10.0 mi South 20.7 mph 29.9 mph N/A   Clear
3:35 PM 32.0 °F 19.8 °F 23.0 °F 69% 29.67 in 10.0 mi South 20.7 mph 28.8 mph N/A   Clear
3:55 PM 33.8 °F 22.5 °F 23.0 °F 65% 29.67 in 10.0 mi South 19.6 mph 28.8 mph N/A   Clear
4:15 PM 33.8 °F 22.8 °F 23.0 °F 65% 29.66 in 10.0 mi South 18.4 mph 26.5 mph N/A   Clear
4:35 PM 33.8 °F 22.5 °F 24.8 °F 70% 29.65 in 10.0 mi South 19.6 mph 26.5 mph N/A   Clear
4:55 PM 33.8 °F 22.8 °F 24.8 °F 70% 29.64 in 10.0 mi South 18.4 mph 27.6 mph N/A   Clear
5:15 PM 33.8 °F 22.5 °F 24.8 °F 70% 29.64 in 10.0 mi South 19.6 mph - N/A   Clear
5:35 PM 33.8 °F 22.5 °F 24.8 °F 70% 29.63 in 10.0 mi South 19.6 mph 27.6 mph N/A   Clear
5:55 PM 33.8 °F 22.8 °F 24.8 °F 70% 29.63 in 10.0 mi South 18.4 mph 26.5 mph N/A   Clear
6:15 PM 33.8 °F 22.8 °F 24.8 °F 70% 29.62 in 10.0 mi South 18.4 mph 26.5 mph N/A   Clear
6:35 PM 33.8 °F 22.8 °F 26.6 °F 75% 29.62 in 10.0 mi South 18.4 mph 24.2 mph N/A   Clear
6:55 PM 33.8 °F 23.2 °F 26.6 °F 75% 29.62 in 10.0 mi South 17.3 mph 23.0 mph N/A   Clear
7:15 PM 35.6 °F 24.5 °F 26.6 °F 70% 29.61 in 10.0 mi South 20.7 mph - N/A   Clear
7:35 PM 35.6 °F 24.8 °F 26.6 °F 70% 29.61 in 10.0 mi South 19.6 mph 26.5 mph N/A   Clear
7:55 PM 35.6 °F 24.8 °F 26.6 °F 70% 29.60 in 10.0 mi South 19.6 mph 28.8 mph N/A   Clear
8:15 PM 33.8 °F 23.5 °F 26.6 °F 75% 29.59 in 10.0 mi South 16.1 mph 21.9 mph N/A   Clear
8:35 PM 32.0 °F 20.8 °F 26.6 °F 80% 29.59 in 10.0 mi South 17.3 mph - N/A   Clear
8:55 PM 32.0 °F 20.8 °F 26.6 °F 80% 29.58 in 10.0 mi South 17.3 mph - N/A   Clear
9:15 PM 33.8 °F 22.5 °F 26.6 °F 75% 29.57 in 10.0 mi South 19.6 mph - N/A   Clear
9:35 PM 33.8 °F 22.2 °F 26.6 °F 75% 29.57 in 10.0 mi South 20.7 mph - N/A   Clear
9:55 PM 33.8 °F 22.5 °F 26.6 °F 75% 29.58 in 10.0 mi SSW 19.6 mph 26.5 mph N/A   Clear
10:15 PM 33.8 °F 23.2 °F 26.6 °F 75% 29.58 in 10.0 mi SSW 17.3 mph - N/A   Clear
10:35 PM 32.0 °F 22.1 °F 24.8 °F 75% 29.60 in 10.0 mi SSW 13.8 mph - N/A   Clear
10:55 PM 32.0 °F 21.2 °F 26.6 °F 80% 29.60 in 10.0 mi SSW 16.1 mph - N/A   Clear
11:15 PM 32.0 °F 21.2 °F 26.6 °F 80% 29.61 in 10.0 mi SSW 16.1 mph - N/A   Clear
11:35 PM 32.0 °F 21.6 °F 26.6 °F 80% 29.60 in 10.0 mi SSW 15.0 mph - N/A   Clear
11:55 PM 32.0 °F 20.8 °F 26.6 °F 80% 29.60 in 10.0 mi SSW 17.3 mph 24.2 mph N/A   Clear